Weather History for CWYW - August, 2013

Change the Weather History Date:

Tuesday, August 13, 2013

  Actual Average Record
Temperature  
Mean Temperature 52 °F -  
Max Temperature 64 °F - - ()
Min Temperature 41 °F - - ()
Degree Days  
Heating Degree Days 12    
Growing Degree Days 2 (Base 50)    
Moisture  
Dew Point 45 °F    
Average Humidity 70    
Maximum Humidity 95    
Minimum Humidity 39    
Precipitation  
Precipitation 0.00 in - - ()
Sea Level Pressure  
Sea Level Pressure 30.16 in    
Wind  
Wind Speed 2 mph ()    
Max Wind Speed 7 mph    
Max Gust Speed -    
T = Trace of Precipitation, MM = Missing Value Source: Averaged Metar Reports

Daily Weather History Graph

Daily Weather History Graph

Search for Another Location

Airport or City:

Trip Planner

Search our weather history database for the weather conditions in past years. The results will help you decide how hot, cold, wet, or windy it might be!

Date:

Astronomy

Aug. 13, 2013 Rise Set
Actual Time 6:41 AM EDT 9:17 PM EDT
Civil Twilight 6:05 AM EDT 9:54 PM EDT
Nautical Twilight 5:18 AM EDT 10:40 PM EDT
Astronomical Twilight 4:22 AM EDT 11:35 PM EDT
Moon 2:25 PM EDT (8/13) No Moon Set
Length of Visible Light 15h 48m
Length of Day
14h 35m
Waxing Crescent, 41% of the Moon is Illuminated
Aug 13
Waxing Crescent
Aug 14
First Quarter
Aug 20
Full
Aug 28
Last Quarter
Sep 5
New

Hourly Weather History & Observations

Time (EDT) Temp. Windchill Dew Point Humidity Pressure Visibility Wind Dir Wind Speed Gust Speed Precip Events Conditions
12:00 AM 52.3 °F - 44.6 °F 75% 30.10 in - NNW 2.3 mph - N/A   Unknown
1:00 AM 51.8 °F - 45.0 °F 77% 30.11 in - NNW 1.2 mph - N/A   Unknown
2:00 AM 51 °F - 45 °F 74% 30.12 in - NW 2.3 mph - -  
2:00 AM 50.5 °F - 45.1 °F 82% 30.12 in - NW 2.3 mph - N/A   Unknown
3:00 AM 48.6 °F - 44.2 °F 85% 30.12 in - NNW 2.3 mph - N/A   Unknown
4:00 AM 45.5 °F - 42.6 °F 90% 30.14 in - NW 1.2 mph - N/A   Unknown
5:00 AM 47 °F - 44 °F 86% 30.15 in - NNW 2.3 mph - -  
5:00 AM 47.5 °F - 44.2 °F 89% 30.15 in - NNW 1.2 mph - N/A   Unknown
6:00 AM 42.6 °F - 40.1 °F 91% 30.16 in - NW 1.2 mph - N/A   Unknown
7:00 AM 45.0 °F 43.5 °F 43.5 °F 95% 30.17 in - WNW 3.5 mph - N/A   Unknown
8:00 AM 49 °F - 46 °F 86% 30.17 in - NNW 2.3 mph - -  
8:00 AM 48.9 °F - 46.0 °F 90% 30.17 in - NNW 2.3 mph - N/A   Unknown
9:00 AM 52.5 °F - 46.4 °F 80% 30.18 in - North 3.5 mph - N/A   Unknown
10:00 AM 54.7 °F - 45.3 °F 71% 30.18 in - NNE 4.6 mph - N/A   Unknown
11:00 AM 58 °F - 44 °F 48% 30.19 in - NNE 4.6 mph - -  
11:00 AM 57.9 °F - 43.9 °F 60% 30.19 in - NNE 4.6 mph - N/A   Unknown
12:00 PM 57.4 °F - 43.9 °F 61% 30.20 in - North 4.6 mph - N/A   Unknown
1:00 PM 59.4 °F - 44.2 °F 57% 30.19 in - NNW 4.6 mph - N/A   Unknown
2:00 PM 58.8 °F - 44.2 °F 58% 30.19 in - North 4.6 mph - N/A   Unknown
3:00 PM 63.5 °F - 44.4 °F 50% 30.18 in - WNW 6.9 mph - N/A   Unknown
4:00 PM 63.7 °F - 46.2 °F 53% 30.18 in - NNW 3.5 mph - N/A   Unknown
5:00 PM 64 °F - 45 °F 39% 30.17 in - NW 5.8 mph - -  
5:00 PM 64.0 °F - 45.0 °F 50% 30.17 in - NNW 4.6 mph - N/A   Unknown
6:00 PM 62.8 °F - 43.3 °F 49% 30.17 in - WNW 2.3 mph - N/A   Unknown
7:00 PM 62.1 °F - 44.6 °F 53% 30.15 in - WNW 5.8 mph - N/A   Unknown
8:00 PM 61 °F - 46 °F 48% 30.15 in - NNW 2.3 mph - -  
8:00 PM 61.0 °F - 46.4 °F 59% 30.15 in - NW 2.3 mph - N/A   Unknown
9:00 PM 55.6 °F - 47.5 °F 74% 30.14 in - West 2.3 mph - N/A   Unknown
10:00 PM 51.3 °F - 46.4 °F 83% 30.14 in - Calm Calm - N/A   Unknown
11:00 PM 47.8 °F - 44.2 °F 87% 30.13 in - Calm Calm - N/A   Unknown